Location: Unspecified
(0.0000°N, 0.0000°E)
Time: 00:41:52
(UTC+00:00)

CZ-3C DEB - Pass Details

Date: 20 February 2026
Orbit: 506 x 35764 km, 20.4° (Epoch: 1 August)

Event Time Altitude Azimuth Distance (km) Brightness Sun altitude
Rises 11:40:23 0° 228° (SW) 3,247 ? 76.4°
Reaches altitude 10° 11:42:31 10° 210° (SSW) 2,838 ? 76.7°
Drops below altitude 10° 12:09:36 10° 108° (ESE) 10,942 ? 79.1°
Maximum altitude 19:30:02 37° 64° (ENE) 29,916 ? -18.7°
Enters shadow 20:35:24 31° 62° (ENE) 21,590 ? -34.7°
